全部
Ricketyback Fld Airport (Aneta, ND) ND02 天氣
There is no TAF data available at ND02 or any nearby airports.
There is no METAR data available at ND02. Showing METAR data for S32 (28 mi S).
S32近期METAR歷史資料(ND02無資料)
| Date | Time (CDT) | Flight Rules | Wind Dir. | Speed | Type | Height AGL (ft) | Visibility | Temp (°C) | Temp (°F) | Dew Point (°C) | Dew Point (°F) | Rel. Humid. | Pressure | Density Altitude | Remarks |
|---|---|---|---|---|---|---|---|---|---|---|---|---|---|---|---|
| gap in available data | |||||||||||||||
| 27-四月 | 02:35 | VFR | 70° | 8 kt | 10 miles | 6° | 42° | 4° | 39° | 87% | 29.91 in Hg | 592 ft | |||
| 27-四月 | 02:15 | VFR | 90° | 8 kt | 10 miles | 6° | 42° | 3° | 37° | 81% | 29.91 in Hg | 592 ft | |||
| 27-四月 | 01:55 | VFR | 100° | 8 kt | 10 miles | 6° | 42° | 3° | 37° | 81% | 29.92 in Hg | 582 ft | |||
| 27-四月 | 01:35 | VFR | 60° | 4 kt | 10 miles | 6° | 42° | 2° | 35° | 75% | 29.92 in Hg | 582 ft | |||
| 27-四月 | 01:15 | VFR | 60° | 4 kt | 10 miles | 6° | 42° | 2° | 35° | 75% | 29.93 in Hg | 572 ft | |||
| 27-四月 | 00:55 | VFR | 80° | 5 kt | 10 miles | 6° | 42° | 2° | 35° | 75% | 29.93 in Hg | 572 ft | |||
| 27-四月 | 00:35 | VFR | 80° | 5 kt | 10 miles | 6° | 42° | 2° | 35° | 75% | 29.93 in Hg | 572 ft | |||
| 27-四月 | 00:15 | VFR | 90° | 4 kt | 10 miles | 7° | 44° | 2° | 35° | 70% | 29.93 in Hg | 692 ft | |||
| 26-四月 | 23:55 | VFR | 70° | 4 kt | 10 miles | 7° | 44° | 2° | 35° | 70% | 29.93 in Hg | 692 ft | |||
| 26-四月 | 23:35 | VFR | 110° | 4 kt | 10 miles | 7° | 44° | 1° | 33° | 66% | 29.94 in Hg | 682 ft | |||
| 26-四月 | 23:15 | VFR | 130° | 4 kt | 10 miles | 7° | 44° | 1° | 33° | 66% | 29.95 in Hg | 672 ft | |||
| 26-四月 | 22:55 | VFR | 150° | 5 kt | 10 miles | 8° | 46° | 1° | 33° | 61% | 29.96 in Hg | 782 ft | |||
| 26-四月 | 22:35 | VFR | 150° | 8 kt | 10 miles | 8° | 46° | 0° | 32° | 57% | 29.96 in Hg | 782 ft | |||
| 26-四月 | 22:15 | VFR | 140° | 11 kt | 10 miles | 8° | 46° | 0° | 32° | 57% | 29.96 in Hg | 782 ft | |||
| 26-四月 | 21:55 | VFR | 140° | 6 kt | 10 miles | 9° | 48° | -1° | 30° | 49% | 29.96 in Hg | 902 ft | |||
| 26-四月 | 21:35 | VFR | 140° | 10 kt | 10 miles | 9° | 48° | -1° | 30° | 49% | 29.96 in Hg | 902 ft | |||
| 26-四月 | 21:15 | VFR | 110° | 6 kt | 10 miles | 9° | 48° | -1° | 30° | 49% | 29.95 in Hg | 912 ft | |||
| 26-四月 | 20:55 | VFR | 100° | 7 kt | 10 miles | 9° | 48° | -2° | 28° | 46% | 29.95 in Hg | 912 ft | |||
| 26-四月 | 20:35 | VFR | 100° | 7 kt | 10 miles | 10° | 50° | -2° | 28° | 43% | 29.95 in Hg | 1,032 ft | |||
| 26-四月 | 20:15 | VFR | 110° | 9 kt | 10 miles | 11° | 51° | -3° | 26° | 37% | 29.95 in Hg | 1,152 ft | |||
| 26-四月 | 19:55 | VFR | 110° | 11 kt | 10 miles | 11° | 51° | -4° | 24° | 35% | 29.95 in Hg | 1,152 ft | |||
| 26-四月 | 19:35 | VFR | 130° | 15 kt | 10 miles | 11° | 51° | -4° | 24° | 35% | 29.94 in Hg | 1,162 ft | |||
| 26-四月 | 19:15 | VFR | 130° | 12 kt | 10 miles | 12° | 53° | -4° | 24° | 32% | 29.94 in Hg | 1,282 ft | Wind gusting to 20 KT | ||
| 26-四月 | 18:55 | VFR | 130° | 17 kt | 10 miles | 12° | 53° | -3° | 26° | 35% | 29.94 in Hg | 1,282 ft | |||
登入
| 您的瀏覽器不支援. 升級您的瀏覽器 |
